Wind_Speed
35 29 31 29 27 25 24 21 19 16 15 12 10 8 6 6 7 10 12 13 13 12 12 14 15 17 20
32 36 29 31 27 26 25 23 20 18 17 14 12 10 9 7 8 9 12 13 12 12 12 13 15 18 21
24 33 33 31 32 30 26 24 21 19 19 16 15 13 10 9 9 10 12 14 12 12 12 14 15 18 21
23 27 33 34 34 32 30 29 24 22 20 18 16 14 12 10 9 10 12 13 13 13 12 14 16 18 21
26 27 34 37 38 35 33 28 25 24 22 20 17 15 14 12 10 10 12 13 13 12 12 14 16 18 21
30 29 29 33 35 35 34 31 30 28 25 21 19 17 15 13 11 11 12 12 12 12 12 14 16 19 21
25 25 26 26 29 33 32 31 28 22 20 23 21 18 16 14 12 12 12 11 11 12 12 14 16 19 21
20 16 17 21 22 23 26 27 27 25 21 20 21 18 15 14 13 12 13 12 11 12 11 13 16 19 20
21 19 18 18 20 24 28 29 28 28 24 20 18 17 15 13 13 11 14 12 13 12 12 13 16 19 21
29 27 24 24 22 21 23 26 27 26 23 21 16 15 13 14 11 13 12 13 12 12 12 13 16 19 20
28 27 26 26 24 23 22 21 22 21 12 21 18 17 16 8 9 12 15 13 12 11 12 15 18 20 21
31 30 28 27 24 23 23 22 22 22 15 17 18 14 15 14 14 12 13 11 11 10 10 15 17 19 22
34 31 29 27 27 26 25 25 25 24 21 17 17 16 17 18 11 11 12 11 11 10 11 14 16 18 19
36 34 31 30 29 26 25 25 26 26 22 18 19 20 18 14 8 12 11 9 9 11 12 14 17 18 20
39 37 34 33 30 27 25 25 25 25 23 20 21 21 17 11 10 12 11 10 10 10 11 12 16 18 19
41 39 37 35 33 30 26 19 24 25 23 21 22 18 14 9 11 11 10 10 10 10 11 13 13 18 19
45 43 41 38 35 32 23 20 28 26 23 24 19 16 11 11 11 10 10 10 9 10 12 13 15 16 18
Wind_Direction
208 205 210 209 211 213 218 222 225 226 233 236 241 248 267 293 324 338 347 350 349 350 350 349 353 352 353
210 208 211 214 215 219 220 223 226 229 236 237 241 245 257 280 306 325 335 344 344 344 346 343 349 351 351
210 209 209 212 213 218 221 224 226 228 235 237 238 244 252 268 292 315 327 334 336 336 337 339 344 348 348
212 207 207 210 213 220 218 221 224 230 233 234 236 240 248 261 280 303 318 327 329 329 329 334 341 346 346
206 203 205 209 213 215 221 227 226 229 232 234 237 238 245 255 271 290 309 317 320 321 323 329 339 342 343
207 211 210 213 216 217 219 219 220 225 230 231 233 235 244 254 265 284 300 311 316 315 318 326 335 339 341
220 218 218 222 221 220 223 228 232 228 233 232 232 234 239 249 260 277 297 308 304 307 314 324 330 334 338
226 235 237 233 230 234 231 227 227 228 232 232 231 231 239 245 262 282 305 301 297 302 308 320 326 329 337
209 219 222 221 223 224 221 218 222 225 227 227 228 229 237 249 257 284 292 284 293 296 305 315 321 328 335
204 209 211 214 217 223 229 225 220 223 223 220 221 221 237 251 250 280 272 280 284 290 301 313 322 329 332
210 214 215 216 216 217 216 221 226 220 229 220 223 226 232 232 270 268 277 276 278 290 304 317 322 328 333
214 220 221 219 214 212 208 206 209 218 218 216 229 240 232 246 270 273 270 273 282 289 301 316 324 329 332
224 224 225 221 215 209 207 206 207 209 217 224 233 232 227 260 261 273 270 276 278 288 304 312 320 326 327
225 224 221 216 214 212 211 210 207 210 216 226 225 228 243 261 256 266 266 260 273 292 307 316 320 324 329
223 221 218 215 210 210 208 211 213 216 220 225 225 237 258 244 258 258 258 261 271 284 303 315 320 325 329
220 221 218 213 210 205 200 208 223 222 224 227 235 249 233 239 252 258 257 259 269 288 304 313 316 319 329
220 219 215 211 206 194 195 219 225 221 222 233 244 231 224 242 256 250 248 257 273 294 305 313 319 324 323
Height
1583 1590 1594 1598 1602 1605 1608 1610 1612 1615 1616 1617 1617 1618 1617 1617 1617 1615 1612 1609 1607 1604 1602 1600 1598 1596 1592
1577 1584 1589 1594 1599 1602 1604 1607 1609 1611 1613 1615 1615 1615 1615 1616 1615 1613 1611 1608 1606 1603 1601 1598 1596 1593 1590
1572 1577 1584 1589 1593 1597 1601 1604 1606 1608 1610 1611 1612 1613 1613 1613 1612 1611 1609 1606 1603 1601 1599 1597 1594 1591 1588
1569 1572 1578 1583 1587 1591 1595 1598 1601 1603 1605 1607 1608 1609 1610 1610 1609 1608 1607 1604 1602 1600 1597 1595 1592 1590 1586
1564 1567 1570 1574 1577 1583 1588 1594 1598 1599 1601 1602 1604 1605 1605 1606 1606 1604 1603 1601 1600 1598 1596 1593 1591 1588 1584
1558 1561 1565 1569 1574 1578 1582 1586 1590 1592 1595 1597 1600 1601 1602 1602 1602 1601 1600 1599 1598 1596 1594 1592 1589 1587 1583
1555 1558 1562 1565 1570 1574 1578 1580 1584 1589 1592 1593 1594 1596 1598 1598 1598 1599 1598 1597 1595 1593 1592 1589 1587 1585 1581
1555 1559 1562 1564 1568 1572 1576 1578 1582 1585 1588 1589 1591 1593 1595 1596 1597 1596 1595 1594 1593 1591 1589 1587 1585 1583 1580
1551 1555 1558 1561 1564 1567 1569 1573 1576 1580 1583 1586 1589 1591 1593 1593 1593 1593 1593 1591 1589 1588 1586 1584 1582 1580 1576
1544 1549 1553 1555 1559 1564 1567 1569 1572 1576 1580 1584 1586 1588 1589 1589 1589 1589 1588 1587 1584 1583 1582 1580 1578 1576 1572
1542 1546 1547 1551 1555 1558 1562 1566 1569 1573 1576 1579 1581 1582 1584 1585 1586 1586 1584 1582 1581 1580 1578 1576 1575 1572 1569
1536 1540 1544 1547 1551 1554 1558 1561 1566 1570 1572 1575 1578 1579 1580 1581 1581 1581 1581 1581 1579 1578 1576 1575 1572 1569 1566
1532 1536 1540 1544 1547 1549 1554 1557 1561 1566 1568 1571 1574 1575 1576 1576 1577 1578 1578 1578 1577 1575 1574 1572 1570 1567 1564
1526 1531 1534 1539 1543 1546 1549 1553 1556 1561 1564 1567 1570 1571 1572 1573 1572 1575 1575 1574 1573 1572 1571 1568 1565 1562 1560
1520 1525 1528 1533 1538 1541 1545 1550 1554 1556 1560 1563 1565 1567 1568 1569 1570 1570 1570 1570 1569 1569 1568 1567 1563 1559 1555
1512 1517 1521 1526 1532 1536 1540 1547 1551 1554 1556 1559 1561 1562 1563 1565 1567 1566 1567 1566 1565 1564 1564 1564 1561 1556 1553
1504 1509 1514 1520 1525 1530 1534 1542 1545 1550 1553 1555 1556 1558 1559 1561 1563 1562 1561 1561 1561 1561 1559 1557 1557 1555 1550